Regional Weather Roundup
Issued by NWS Newport/Morehead, NC

Current Version | Previous Version | Text Only | Print | Product List | Glossary On
Versions: 1 2 3 4 5 6 7 8 9 10 11 12 13 14 15 16 17 18 19 20 21 22 23 24 25 26 27 28 29 30 31 32 33 34 35 36 37 38 39 40 41 42 43 44 45 46 47 48 49 50
000
ASUS42 KMHX 260225
RWRMHX
WEATHER ROUNDUP FOR EASTERN NORTH CAROLINA
NATIONAL WEATHER SERVICE NEWPORT/MOREHEAD CITY NC
1000 PM EDT TUE JUL 25 2017

NOTE: "FAIR" INDICATES FEW OR NO CLOUDS BELOW 12,000 FEET
WITH NO SIGNIFICANT WEATHER AND/OR OBSTRUCTIONS TO VISIBILITY

NCZ015>017-031-032-045>047-102-103-260300-
NORTH COAST

CITY           SKY/WX    TMP DP  RH WIND       PRES   REMARKS
EDENTON        CLOUDY    75  67  74 CALM      30.15R
ELIZABETH CITY CLOUDY    74  67  78 NE9       30.15R
KITTY HAWK     MOCLDY    75  64  67 CALM      30.13R
MANTEO         CLOUDY    76  65  68 NE9       30.14R

$$

NCZ045>047-081-094-103-104-260300-
CENTRAL COAST

CITY           SKY/WX    TMP DP  RH WIND       PRES   REMARKS
FRISCO         MOCLDY    76  67  73 NE7       30.11R

$$

NCZ095-097-098-100-101-260300-
SOUTHERN COAST

CITY           SKY/WX    TMP DP  RH WIND       PRES   REMARKS
BEAUFORT       CLOUDY    78  75  90 E6        30.10R
CEDAR ISLAND   NOT AVBL
JACKSONVILLE   CLOUDY    82  79  90 E5        30.08R
PINEY ISLAND   CLOUDY   N/A N/A N/A E10       30.10R
WILMINGTON     CLOUDY    80  76  87 NW5       30.07R


$$

NCZ011>013-027>030-043-044-078>080-089-090>093-098-260300-
COASTAL PLAIN

CITY           SKY/WX    TMP DP  RH WIND       PRES   REMARKS
AHOSKIE          N/A     73  68  86 CALM      30.15R
CLINTON        CLEAR     82  75  80 E7        30.09R
ELIZABETHTOWN  NOT AVBL
GOLDSBORO      CLEAR     79  76  91 E10       30.09R
GREENVILLE     CLEAR     77  70  78 E9        30.14R
HAVELOCK       CLOUDY    79  73  82 E8        30.11R
KENANSVILLE    PTCLDY    79  73  83 CALM      30.10R
KINSTON        PTCLDY    79  72  78 E12       30.11R
NEW BERN       CLOUDY    79  73  82 E7        30.12R
RICHLANDS      LGT RAIN  76  74  93 S3        30.10R
ROCKY MOUNT    MOCLDY    80  74  81 VRB3      30.11R
WASHINGTON     CLOUDY    74  68  80 NE6       30.13R
WHITEVILLE     CLOUDY    80  76  88 CALM      30.06S

$$

AMZ130-135-150-152-154-156-158-170-250-252-270-ANZ085-086-088-633-658-670-260300-
MARINE OBSERVATIONS

STATION/POSITION TIME  TEMP    WIND        PRES    WAVE   SWELL
                       AIR SEA DIR/SP/G            HT/PER HT/PER
                 (UTC) (F)     (DEG/KT/KT) (MB)    (FT/S) (FT/S)
CHESAPEAKE LIGHT NOT AVBL
64 E VA BEACH    0150   77 78   20/ 12/ 14 1020.3    3/ 4   2/ 7
DUCK             0200   76 75   30/  9/ 11 1020.2
2 E DUCK         0200      74                N/A     3/ 5
OREGON INLET     0200   75 80   30/  8/ 10 1020.1
13E OREGON INLT  0148      76                N/A     3/ 5   2/ 5
HATTERAS CG      0200   77 79   50/ 10/ 14 1019.6
DIAMOND BUOY     0150   80 84   30/ 16/ 19 1018.8    3/ 4   2/11
CAPE LOOKOUT     0200   79      60/ 14/ 16 1018.9
BEAUFORT LAB     0200   79 81   80/  6/ 10 1018.7
30 SE NEW RVR IN 0208   82 84  260/  4/  6 1018.6
30 SE NEW RVR IN 0143      84                N/A     4/ 6
27 SE WRIGHTSVLE 0208   82 82  230/  8/ 12 1018.2
5 SE WRIGHTSVLE  0208   82 83  260/  6/ 10 1017.9
225 S CAPE HAT   0150   83 83  220/ 10/ 12 1020.0    4/ 6   3/ 6
41 SE CHARLESTON 0210   81 83  230/ 12/ 14 1017.6

$$




USA.gov is the U.S. government's official web portal to all federal, state and local government web resources and services.